This demonstration page uses our WeatherBlox Daily Observations layout. Learn more.

Left ArrowRight Arrow

34.74481, -87.66753

Hourly Observations for September 8, 2019

Temp ( °F °C ) Dew Point ( °F °C ) Humidity (%) Winds ( mph kmh ) Pressure ( in mb ) Visibility ( mi km ) Precip ( " mm )
12:53 am 00:53 Clear 69 20.6 64 17.8 84 84 Calm 29.98 1015 10 16 0.00 0.00
1:53 am 01:53 Clear 67 19.4 63 17.2 87 87 Calm 29.97 1015 10 16 0.00 0.00
2:53 am 02:53 Clear 66 18.9 63 17.2 90 90 Calm 29.96 1015 10 16 0.00 0.00
3:53 am 03:53 Clear 65 18.3 62 16.7 90 90 Calm 29.97 1015 10 16 0.00 0.00
4:53 am 04:53 Clear 64 17.8 61 16.1 90 90 Calm 29.98 1015 10 16 0.00 0.00
5:53 am 05:53 Clear 64 17.8 61 16.1 90 90 Calm 30.00 1016 9 14 0.00 0.00
6:53 am 06:53 Sunny 63 17.2 60 15.6 90 90 Calm 30.01 1016 10 16 0.00 0.00
7:53 am 07:53 Sunny 69 20.6 64 17.8 84 84 Calm 30.02 1017 10 16 0.00 0.00
8:53 am 08:53 Sunny 74 23.3 65 18.3 74 74 Calm 30.03 1017 10 16 0.00 0.00
9:53 am 09:53 Sunny 80 26.7 64 17.8 58 58 SE 5 7 30.03 1017 10 16 0.00 0.00
10:53 am 10:53 Sunny 85 29.4 64 17.8 50 50 Calm 30.03 1017 10 16 0.00 0.00
11:53 am 11:53 Sunny 89 31.7 62 16.7 41 41 VRB 3 6 30.04 1017 10 16 0.00 0.00
12:53 pm 12:53 Sunny 92 33.3 61 16.1 36 36 VRB 6 9 30.04 1017 10 16 0.00 0.00
1:53 pm 13:53 Sunny 93 33.9 60 15.6 33 33 NW 6 9 30.01 1016 10 16 0.00 0.00
2:53 pm 14:53 Sunny 93 33.9 60 15.6 33 33 NNW 6 9 30.01 1016 10 16 0.00 0.00
3:53 pm 15:53 Sunny 94 34.4 61 16.1 33 33 NNE 7 11 29.99 1016 10 16 0.00 0.00
4:53 pm 16:53 Sunny 94 34.4 60 15.6 32 32 NW 6 9 29.99 1016 10 16 0.00 0.00
5:53 pm 17:53 Sunny 91 32.8 59 15 34 34 N 3 6 30.00 1016 10 16 0.00 0.00
6:53 pm 18:53 Sunny 86 30 63 17.2 46 46 N 3 6 30.00 1016 10 16 0.00 0.00
7:53 pm 19:53 Clear 78 25.6 66 18.9 67 67 N 3 6 30.01 1016 10 16 0.00 0.00
8:53 pm 20:53 Clear 75 23.9 67 19.4 76 76 Calm 30.02 1017 10 16 0.00 0.00
9:53 pm 21:53 Clear 74 23.3 66 18.9 76 76 Calm 30.04 1017 10 16 0.00 0.00
10:53 pm 22:53 Clear 73 22.8 66 18.9 79 79 Calm 30.04 1017 10 16 0.00 0.00
11:53 pm 23:53 Clear 71 21.7 66 18.9 84 84 Calm 30.03 1017 10 16 0.00 0.00

Powered by AerisWeather